Location: Taupo
(38.6830°S, 176.0830°E)
Time: 14:25:34
(UTC+13:00)

NOAA 11 - Pass Details

Date: 24 January 2019
Orbit: 832 x 850 km, 98.5° (Epoch: 19 February)

Event Time Altitude Azimuth Distance (km) Brightness Sun altitude
Rises 21:29:49 0° 164° (SSE) 3,447 7.6 -9.7°
Reaches altitude 10° 21:32:14 10° 161° (SSE) 2,506 6.9 -10.1°
Maximum altitude 21:37:46 65° 79° (E) 939 4.2 -11.0°
Drops below altitude 10° 21:43:15 10° 356° (N) 2,477 6.3 -11.8°
Sets 21:45:37 0° 353° (N) 3,404 7.0 -12.2°
